Temp
13 13 13 12 12 12 13 13 12 11 11 11 11 12 12 12 12 11 12 12 11 10 9 10 11 10 10 10 10 10 10 10 10 10 10 9 9 9 9 9 8 9 8
13 13 13 12 12 12 12 12 12 11 11 11 11 11 11 11 11 11 11 11 10 10 9 9 11 10 10 10 10 10 10 10 10 9 9 9 9 9 9 8 8 8 8
13 12 12 12 11 12 12 12 12 11 11 11 11 11 11 11 11 11 11 11 11 10 9 9 11 10 10 10 10 10 10 9 9 9 9 9 8 8 8 8 8 8 7
13 12 12 12 12 11 11 12 12 11 11 11 11 11 11 11 11 10 10 10 10 10 9 10 11 10 9 9 9 9 9 8 8 9 9 8 8 8 8 8 8 7 7
11 12 12 12 12 12 12 12 12 11 11 11 11 11 11 11 10 10 10 10 10 10 10 10 11 9 9 9 8 8 8 8 8 8 8 8 8 8 7 7 7 6 6
10 11 12 12 12 12 12 12 12 11 11 11 11 11 11 11 10 10 10 10 10 9 9 10 9 9 9 9 9 8 9 9 9 9 8 8 8 8 7 7 6 6 6
11 11 12 12 12 12 12 12 12 11 11 12 12 11 11 10 10 10 10 10 10 9 9 8 9 9 9 9 9 9 9 8 8 8 8 8 8 7 7 7 6 6 5
11 11 12 12 12 11 11 12 11 11 11 11 12 11 10 10 10 10 10 10 9 9 9 9 9 10 9 9 9 9 9 8 8 8 8 8 7 7 7 6 6 5 5
10 11 11 11 12 12 11 11 11 11 11 11 11 11 11 10 11 11 11 11 11 10 10 10 9 8 8 8 8 9 8 8 8 8 8 8 8 7 7 7 6 5 4
10 10 10 10 11 11 10 11 10 11 11 11 11 11 11 11 12 11 11 11 11 10 10 10 9 9 9 8 8 9 9 8 8 8 8 7 7 7 7 6 6 5 5
10 9 9 9 9 9 10 10 10 10 11 11 11 11 11 11 11 11 10 11 10 10 10 10 10 9 8 8 8 8 8 9 8 8 8 7 6 6 7 6 5 4 3
10 8 9 9 9 9 9 10 10 11 11 10 11 11 11 11 11 11 11 10 10 10 10 10 10 10 11 10 9 10 9 8 8 8 8 7 6 6 6 5 5 4 4
9 9 9 8 9 9 8 9 11 11 10 11 11 10 10 11 10 10 9 10 10 10 10 9 9 9 10 11 10 10 10 9 8 8 7 7 6 6 6 5 5 4 4
10 9 9 8 8 8 9 11 9 10 11 11 11 12 11 10 10 10 10 10 9 9 9 10 10 10 10 10 10 10 9 9 8 7 6 6 6 6 6 6 5 5 4
9 8 8 8 9 9 10 9 10 10 10 10 11 11 10 10 10 10 9 10 9 8 8 9 8 9 8 8 8 8 8 8 8 8 7 7 6 6 5 5 5 4 4
9 9 9 9 9 10 9 10 11 11 11 10 10 11 10 10 10 10 10 10 10 9 8 9 10 10 9 8 8 7 7 7 7 8 8 6 6 7 6 5 5 5 4
10 10 10 10 10 10 10 10 11 11 10 10 10 10 10 10 10 10 10 10 9 9 9 9 8 8 8 7 7 7 7 7 7 6 7 7 6 6 5 4 3 3 3
10 10 10 10 10 10 10 11 11 10 10 9 10 9 9 10 9 9 9 9 9 9 9 8 8 8 7 7 7 6 6 6 6 6 6 6 6 5 4 3 2 0 0
10 9 9 10 10 10 10 10 10 10 10 9 9 9 9 9 9 9 9 9 9 8 8 8 7 6 6 6 6 5 5 5 5 5 5 5 4 3 2 2 1 -1 -0
10 10 9 10 10 10 9 9 9 9 10 10 9 9 9 9 9 9 8 8 7 7 6 6 5 5 5 5 5 5 4 4 5 4 3 2 2 1 1 -0 -1 -0 -1
10 10 10 10 9 9 9 9 9 9 9 9 9 9 9 9 9 8 8 7 6 6 5 4 4 4 3 3 3 2 2 2 2 2 1 1 1 0 -0 -1 -1 -1 -1
10 10 9 9 9 9 9 9 9 9 10 9 9 9 8 7 6 7 6 6 6 4 4 3 2 1 1 0 -0 -1 -1 -1 -1 -1 -1 -1 -1 -1 -2 -1 -1 -2 -2
10 10 10 9 9 9 9 9 9 9 8 8 8 7 5 5 4 3 4 1 2 -0 0 -0 -0 -1 -1 -2 -2 -3 -3 -3 -3 -3 -3 -3 -3 -3 -3 -3 -3 -3 -3
9 9 9 9 9 8 8 8 8 8 8 6 4 3 3 2 2 1 1 -0 -1 -1 -1 -2 -3 -4 -4 -4 -4 -5 -5 -5 -5 -5 -5 -6 -5 -5 -5 -5 -5 -5 -5
9 9 8 8 7 6 6 6 6 5 3 3 1 1 0 -0 -0 -1 -2 -2 -2 -3 -3 -4 -5 -5 -6 -6 -6 -7 -7 -7 -8 -8 -7 -8 -7 -7 -7 -6 -6 -6 -6
8 7 7 5 4 4 2 2 2 2 2 0 -0 -1 -1 -2 -2 -3 -3 -4 -5 -5 -6 -7 -8 -9 -9 -9 -9 -9 -10 -10 -10 -9 -8 -9 -9 -10 -10 -9 -8 -7 -6
Height
1493 1501 1510 1517 1523 1527 1530 1535 1540 1545 1550 1553 1556 1559 1563 1563 1562 1564 1564 1565 1567 1569 1572 1571 1573 1576 1576 1577 1576 1577 1578 1579 1578 1578 1578 1578 1580 1580 1580 1581 1581 1580 1581
1494 1500 1508 1516 1522 1526 1530 1535 1539 1546 1549 1553 1554 1556 1560 1564 1562 1563 1564 1564 1566 1568 1569 1572 1571 1575 1576 1576 1576 1576 1576 1577 1576 1578 1578 1579 1579 1579 1579 1579 1579 1579 1580
1494 1500 1507 1516 1522 1525 1531 1536 1540 1545 1549 1550 1554 1556 1559 1562 1563 1561 1563 1565 1565 1568 1569 1571 1570 1574 1576 1576 1576 1575 1575 1577 1576 1577 1578 1578 1579 1578 1578 1578 1578 1579 1579
1495 1501 1506 1514 1521 1525 1530 1535 1539 1543 1547 1550 1552 1555 1557 1560 1564 1562 1562 1563 1565 1567 1568 1569 1569 1572 1574 1574 1575 1574 1575 1575 1575 1575 1576 1577 1577 1577 1577 1576 1576 1576 1576
1495 1501 1506 1512 1517 1523 1528 1533 1536 1541 1544 1549 1551 1554 1556 1559 1562 1564 1562 1561 1563 1566 1567 1567 1568 1571 1572 1573 1574 1573 1574 1574 1574 1574 1575 1575 1575 1575 1575 1575 1575 1574 1574
1491 1499 1504 1512 1514 1520 1525 1530 1533 1539 1543 1547 1550 1553 1556 1558 1559 1562 1563 1563 1562 1564 1564 1565 1567 1569 1570 1570 1570 1570 1571 1571 1571 1572 1572 1572 1573 1572 1573 1573 1574 1572 1573
1486 1495 1502 1508 1514 1516 1522 1527 1531 1537 1541 1545 1549 1552 1555 1556 1558 1559 1559 1561 1563 1563 1563 1563 1564 1566 1566 1567 1568 1568 1568 1569 1569 1569 1569 1569 1568 1570 1569 1568 1570 1570 1572
1481 1490 1497 1504 1509 1513 1520 1524 1529 1535 1540 1543 1547 1549 1552 1555 1555 1554 1555 1557 1559 1559 1560 1562 1560 1561 1562 1562 1563 1565 1565 1565 1565 1564 1564 1565 1565 1565 1566 1565 1565 1565 1565
1476 1484 1492 1498 1504 1511 1518 1522 1527 1532 1536 1539 1543 1546 1548 1549 1548 1549 1550 1552 1553 1554 1555 1556 1557 1557 1557 1555 1556 1558 1559 1561 1560 1559 1560 1560 1560 1559 1559 1559 1560 1559 1560
1471 1481 1488 1496 1502 1510 1518 1522 1526 1529 1532 1534 1540 1541 1541 1544 1544 1544 1546 1548 1549 1550 1551 1551 1552 1552 1552 1552 1550 1549 1550 1552 1554 1554 1553 1553 1554 1554 1553 1553 1552 1553 1552
1468 1477 1485 1494 1502 1509 1515 1518 1522 1526 1528 1532 1535 1537 1539 1540 1541 1542 1541 1542 1544 1544 1545 1545 1546 1547 1548 1548 1548 1546 1545 1544 1544 1545 1545 1545 1545 1545 1544 1544 1544 1543 1544
1466 1475 1484 1492 1499 1505 1510 1514 1521 1523 1526 1528 1530 1532 1533 1535 1537 1537 1538 1538 1538 1537 1538 1540 1539 1539 1540 1538 1536 1535 1533 1531 1533 1534 1535 1535 1536 1535 1534 1535 1535 1535 1536
1466 1475 1482 1488 1494 1501 1506 1513 1516 1519 1522 1524 1526 1530 1531 1531 1532 1532 1532 1532 1531 1532 1533 1532 1532 1532 1530 1528 1526 1525 1525 1524 1521 1519 1521 1524 1525 1526 1525 1525 1526 1526 1527
1465 1472 1479 1486 1492 1499 1505 1508 1513 1516 1518 1520 1521 1524 1527 1529 1529 1527 1526 1527 1525 1524 1523 1522 1524 1522 1521 1519 1515 1513 1510 1511 1510 1509 1509 1509 1511 1514 1516 1516 1517 1517 1517
1465 1472 1479 1485 1492 1497 1500 1506 1509 1511 1513 1515 1516 1518 1520 1521 1521 1521 1520 1519 1518 1515 1512 1513 1511 1510 1508 1507 1504 1502 1500 1499 1498 1498 1498 1496 1497 1498 1501 1504 1505 1507 1508
1465 1471 1478 1483 1489 1493 1498 1501 1503 1506 1508 1509 1510 1511 1513 1513 1513 1513 1513 1511 1509 1506 1499 1504 1500 1500 1498 1496 1494 1492 1490 1489 1488 1487 1486 1485 1486 1486 1486 1488 1491 1492 1494
1462 1468 1474 1479 1484 1488 1492 1495 1498 1501 1502 1503 1503 1504 1504 1505 1505 1504 1504 1502 1500 1498 1490 1487 1488 1488 1486 1483 1482 1480 1480 1479 1477 1477 1475 1474 1474 1473 1473 1475 1479 1481 1485
1461 1465 1469 1474 1478 1481 1486 1489 1492 1494 1495 1496 1496 1497 1497 1497 1497 1496 1495 1493 1491 1489 1485 1476 1481 1477 1476 1472 1471 1470 1470 1469 1467 1464 1462 1461 1460 1460 1460 1461 1465 1469 1470
1459 1463 1467 1470 1473 1477 1480 1483 1486 1488 1490 1490 1491 1491 1491 1491 1489 1488 1487 1484 1481 1478 1477 1474 1469 1470 1467 1465 1462 1461 1460 1458 1455 1451 1449 1447 1448 1449 1450 1450 1448 1451 1454
1456 1460 1464 1468 1471 1475 1477 1479 1481 1482 1484 1485 1485 1483 1481 1480 1479 1477 1476 1471 1471 1467 1468 1466 1462 1460 1458 1457 1455 1453 1452 1451 1449 1445 1442 1440 1440 1440 1441 1442 1441 1444 1444
1452 1457 1461 1464 1467 1470 1469 1470 1474 1476 1475 1475 1475 1474 1472 1469 1469 1466 1466 1460 1464 1460 1460 1459 1456 1453 1451 1449 1448 1446 1443 1442 1440 1440 1438 1435 1434 1434 1433 1434 1435 1436 1437
1447 1453 1456 1456 1457 1458 1460 1464 1467 1468 1468 1468 1467 1465 1462 1462 1460 1458 1457 1457 1454 1455 1451 1452 1450 1448 1446 1444 1441 1440 1437 1435 1433 1433 1431 1429 1429 1427 1428 1429 1429 1429 1429
1439 1443 1446 1449 1451 1453 1454 1457 1459 1460 1459 1458 1457 1455 1455 1455 1454 1454 1451 1454 1450 1451 1447 1448 1446 1445 1443 1442 1439 1436 1435 1432 1430 1429 1427 1423 1425 1422 1423 1422 1421 1421 1420
1434 1437 1440 1443 1444 1446 1447 1449 1451 1451 1452 1451 1451 1450 1450 1452 1449 1453 1451 1451 1450 1449 1446 1446 1445 1444 1441 1439 1437 1434 1431 1428 1427 1425 1424 1417 1417 1414 1413 1412 1412 1412 1411
1429 1433 1435 1437 1439 1440 1442 1444 1445 1446 1448 1448 1449 1448 1450 1450 1450 1450 1450 1450 1447 1445 1444 1443 1442 1440 1438 1436 1433 1430 1428 1425 1421 1421 1421 1414 1413 1408 1406 1404 1404 1404 1404
1423 1427 1430 1434 1435 1438 1440 1442 1444 1445 1445 1447 1446 1448 1449 1449 1449 1450 1449 1447 1445 1443 1441 1440 1439 1437 1436 1434 1432 1429 1426 1424 1422 1418 1416 1413 1409 1407 1401 1398 1398 1396 1393
Wind_Speed
41 37 36 38 37 36 34 31 26 21 17 17 13 16 15 13 12 9 13 12 11 11 11 11 10 8 6 6 7 6 6 5 6 6 6 7 6 5 5 4 3 2 1
40 37 39 38 39 36 34 31 25 24 19 16 17 19 16 12 10 8 12 13 12 11 11 11 8 6 5 4 4 5 5 5 5 6 6 5 5 4 4 4 3 2 2
40 38 41 37 37 35 33 30 24 23 21 18 17 17 17 15 12 10 6 7 13 12 11 10 7 7 6 5 5 5 5 6 5 6 6 5 6 6 6 5 4 4 5
42 39 40 37 34 29 29 27 25 24 21 18 18 19 17 18 14 12 10 6 7 13 14 11 7 8 9 8 8 7 8 7 6 7 8 8 8 8 7 6 7 7 8
39 39 39 35 35 32 30 28 28 24 23 20 18 16 16 15 16 17 10 10 11 12 12 12 12 13 12 12 12 11 10 10 11 11 10 11 11 10 10 10 10 10 10
42 44 39 34 35 36 32 29 27 24 22 21 15 17 16 14 15 15 17 14 14 17 16 14 13 16 16 16 16 15 14 15 15 15 15 15 14 14 14 13 13 13 14
45 44 43 37 32 33 33 25 27 26 21 20 18 17 15 14 15 17 18 21 21 20 19 20 21 20 20 22 21 19 19 19 19 19 20 19 18 18 18 17 17 15 17
47 50 47 40 37 28 26 29 28 27 21 21 18 20 13 15 23 22 20 21 23 23 25 24 26 26 25 23 21 21 24 24 24 23 23 24 22 22 23 22 21 20 19
51 52 49 41 39 37 31 33 31 30 25 24 22 15 11 10 10 13 17 22 24 26 26 26 26 30 29 27 27 26 27 28 30 29 29 29 28 27 27 26 25 25 23
52 51 47 39 43 37 34 33 32 27 26 27 28 26 14 9 8 5 12 14 17 24 27 28 29 29 30 31 32 33 33 34 35 34 35 36 35 32 31 30 30 30 28
53 51 47 42 42 33 34 34 27 33 25 23 23 22 23 21 19 16 8 14 16 18 22 25 27 30 33 34 34 36 37 39 42 41 39 40 41 39 37 34 33 32 31
47 50 45 44 36 34 33 31 30 28 31 27 22 19 21 20 21 21 26 30 28 30 30 28 30 30 31 36 38 42 41 45 44 46 47 46 44 44 42 40 37 36 37
42 46 44 42 39 40 29 33 32 28 29 26 22 23 24 27 25 24 23 29 29 30 31 33 36 38 41 42 47 50 51 51 52 49 50 51 50 50 48 46 45 44 42
39 45 48 47 40 32 33 37 31 29 26 27 26 32 37 31 29 31 32 33 35 36 38 40 39 40 43 48 50 50 48 50 50 52 51 55 55 55 55 53 52 51 49
40 41 44 44 36 36 37 33 28 26 26 29 33 34 34 36 34 33 34 34 35 31 33 36 35 41 44 48 51 50 51 47 44 47 53 53 54 55 57 58 55 55 53
37 33 40 40 39 39 35 40 36 36 36 38 39 39 42 42 42 38 38 39 39 43 42 45 52 51 47 48 53 53 52 46 45 45 50 55 51 53 56 59 59 57 55
29 34 38 40 41 40 41 43 44 41 39 39 41 41 38 38 37 38 40 41 43 47 51 51 51 47 46 47 47 49 48 50 49 52 56 52 53 55 55 58 58 55 50
29 30 30 34 39 38 42 42 39 38 35 34 36 35 37 36 36 38 40 45 48 48 50 53 49 47 46 42 44 46 48 46 49 46 52 55 56 51 50 54 53 47 50
26 27 27 25 25 29 33 35 36 37 36 35 35 34 35 36 37 38 41 44 51 50 47 46 41 42 42 40 41 43 44 46 47 48 50 51 50 44 46 50 51 50 51
28 30 30 29 31 30 30 32 33 33 32 32 32 34 35 37 41 42 43 37 24 28 32 35 36 38 39 40 40 42 43 43 44 42 43 41 40 41 43 47 52 50 46
29 29 29 27 26 26 29 31 28 26 28 28 29 31 33 35 42 31 30 29 28 28 29 28 29 30 32 32 32 32 33 34 35 37 40 41 45 46 47 43 43 45 47
25 23 23 26 28 29 31 28 27 28 31 33 35 31 28 28 23 30 28 26 22 23 21 20 21 22 24 24 25 26 26 26 27 31 33 37 39 42 40 39 40 39 38
27 28 28 27 27 28 30 30 29 32 36 31 24 19 15 15 13 11 14 17 18 17 17 15 16 16 16 17 17 18 18 19 20 22 25 30 28 32 34 37 38 39 38
28 28 27 27 28 28 28 27 25 23 23 14 7 2 2 6 8 10 12 13 12 13 13 13 13 14 15 16 18 19 21 22 24 24 25 31 30 34 35 35 35 33 30
28 25 22 20 16 13 12 14 9 5 4 4 4 5 6 8 9 10 11 13 15 15 15 16 17 17 18 19 21 22 22 23 25 24 22 28 27 30 28 28 28 27 29
25 21 19 14 12 11 10 10 8 6 5 6 6 6 8 9 10 12 13 14 14 14 15 15 16 16 17 17 16 16 15 16 18 19 8 20 26 28 27 26 22 19 19
Wind_Direction
173 173 175 177 174 171 171 163 159 151 156 155 144 171 138 184 206 223 182 173 165 165 166 155 155 154 137 128 131 140 146 149 143 149 149 151 161 162 161 162 164 169 183
176 176 178 181 178 177 175 167 155 171 165 171 177 153 151 176 220 230 189 178 177 178 175 179 162 171 163 156 156 165 166 183 171 188 182 180 188 196 203 213 230 248 262
182 179 179 183 180 183 180 168 154 177 174 181 171 163 163 170 202 231 208 216 196 198 193 200 184 198 209 207 204 203 201 210 213 213 206 216 222 222 230 243 257 260 262
188 182 182 180 183 182 174 165 177 181 177 176 178 176 172 172 184 212 232 243 236 225 210 213 221 229 234 232 232 229 236 238 235 230 229 236 240 245 253 252 252 254 260
189 185 179 175 179 179 174 178 181 180 182 178 185 179 178 179 196 188 220 246 264 263 235 243 244 240 239 239 238 239 241 247 250 246 243 243 248 254 257 259 257 260 264
184 182 178 178 185 182 178 184 185 184 190 177 180 186 184 189 205 197 188 218 238 245 262 261 254 250 253 246 244 243 247 246 246 249 248 249 251 252 255 257 259 261 263
187 186 182 183 178 184 181 176 181 185 187 177 185 184 185 191 211 202 214 206 222 237 248 251 262 259 261 255 249 249 248 248 249 249 247 251 252 253 254 256 258 266 268
188 182 185 187 187 174 183 191 187 182 187 187 186 184 183 211 218 219 216 222 225 233 243 242 249 259 260 261 258 261 261 255 253 253 252 255 255 257 257 258 259 263 265
190 187 183 184 186 188 196 200 194 188 183 192 189 188 188 214 225 237 239 244 238 240 245 251 248 250 258 264 265 266 267 268 259 257 257 257 257 257 258 259 259 259 263
189 190 190 192 189 185 207 201 191 190 197 203 198 197 196 206 197 207 242 242 255 250 250 251 255 260 258 257 259 267 269 267 266 263 260 259 260 259 259 259 259 255 255
193 194 192 192 180 197 202 200 202 199 212 218 217 216 226 232 242 247 242 251 245 256 260 262 263 258 259 264 265 259 271 278 270 266 265 260 257 260 263 261 264 262 253
199 185 182 178 191 199 201 205 214 215 211 210 231 238 244 245 260 262 260 258 257 264 263 263 267 274 278 268 263 276 276 263 268 267 265 263 259 257 258 259 258 254 252
186 185 187 189 198 204 207 212 221 227 218 224 227 241 251 263 269 274 265 272 271 271 267 268 272 274 280 282 276 276 277 273 274 263 260 260 262 260 255 253 254 252 251
187 189 193 195 201 211 211 218 223 225 229 230 238 248 255 259 260 262 264 266 269 268 272 272 285 284 283 284 282 279 278 276 273 265 257 259 260 261 258 255 255 253 253
194 195 198 202 208 214 218 218 224 234 243 249 257 263 257 259 266 266 267 269 268 264 267 277 276 287 289 289 286 281 283 278 284 275 262 264 261 260 257 256 256 254 254
203 200 206 212 216 222 220 228 235 245 255 259 264 263 266 265 265 266 269 270 270 273 265 280 286 294 288 291 288 287 286 285 282 273 267 269 262 264 257 254 255 255 252
201 210 213 216 218 219 223 231 243 251 256 256 259 264 265 266 265 269 270 269 267 270 268 282 283 289 288 294 289 289 285 284 280 281 278 271 261 264 260 255 254 255 251
211 214 219 218 225 229 232 239 243 247 252 255 268 266 264 268 268 271 267 265 269 271 276 276 278 287 289 298 295 284 288 287 283 285 279 275 267 264 258 253 253 247 248
209 208 212 218 222 227 232 238 245 252 259 261 260 260 264 267 266 266 269 273 272 273 272 280 293 294 297 297 293 288 282 284 273 269 266 265 265 259 254 249 241 242 249
212 212 215 220 225 228 234 241 247 252 261 265 265 259 260 261 264 267 273 266 266 271 283 287 293 297 295 294 290 287 284 278 272 268 263 261 257 250 246 246 245 248 247
217 223 227 229 232 238 239 240 243 247 249 253 256 261 258 259 266 272 275 288 286 284 288 290 289 288 289 290 291 291 290 288 286 282 274 264 259 259 258 255 254 255 254
215 219 223 222 225 231 237 240 242 246 250 254 257 257 266 275 281 283 291 293 297 309 307 305 303 302 302 305 305 304 301 297 291 280 276 276 271 265 266 265 263 263 267
209 213 218 222 228 233 240 244 245 247 250 249 252 256 260 276 294 312 317 328 329 333 339 334 328 324 321 317 315 311 306 301 294 291 288 283 278 276 274 274 273 275 274
209 215 218 222 225 229 237 241 244 257 262 247 233 206 316 334 343 340 342 337 340 337 336 332 329 325 317 312 308 305 302 299 295 297 300 297 299 293 292 288 287 288 283
207 209 205 200 204 212 231 240 231 187 156 117 76 39 15 4 356 347 338 335 331 330 328 329 326 325 324 323 323 317 313 312 310 306 299 287 292 290 285 285 287 286 282
196 190 188 175 166 156 127 119 109 98 87 63 53 25 1 346 340 338 335 336 336 338 335 334 336 339 343 345 349 346 335 326 322 327 282 307 307 314 312 295 286 270 264